Time,TemperatureF,DewpointF,PressureIn,WindDirection,WindDirectionDegrees,WindSpeedMPH,WindSpeedGustMPH,Humidity,HourlyPrecipIn,Conditions,Clouds,dailyrainin,SoftwareType,DateUTC
2013-03-13 00:03:00,36.0,28.0,-100.00,SSE,168,4.0,19.0,71,0.00,,,-99.99,,2013-03-13 04:03:00,
2013-03-13 00:13:00,37.0,28.0,-100.00,SE,144,4.0,19.0,69,0.00,,,-99.99,,2013-03-13 04:13:00,
2013-03-13 00:23:00,36.0,28.0,-100.00,SE,144,4.0,19.0,69,0.00,,,-99.99,,2013-03-13 04:23:00,
2013-03-13 00:32:00,34.0,25.0,-100.00,SE,146,5.0,19.0,68,0.00,,,-99.99,,2013-03-13 04:32:00,
2013-03-13 00:43:00,34.0,25.0,-100.00,South,173,6.0,19.0,67,0.00,,,-99.99,,2013-03-13 04:43:00,
2013-03-13 00:52:00,36.0,27.0,-100.00,SSE,163,5.0,19.0,68,0.00,,,-99.99,,2013-03-13 04:52:00,
2013-03-13 01:02:00,36.0,27.0,-100.00,SSE,160,6.0,19.0,68,0.00,,,-99.99,,2013-03-13 05:02:00,
2013-03-13 01:12:00,36.0,28.0,-100.00,SE,129,4.0,19.0,69,0.00,,,-99.99,,2013-03-13 05:12:00,
2013-03-13 01:22:00,36.0,28.0,-100.00,SE,132,4.0,19.0,69,0.00,,,-99.99,,2013-03-13 05:22:00,
2013-03-13 01:32:00,36.0,28.0,-100.00,SSE,156,4.0,19.0,71,0.00,,,-99.99,,2013-03-13 05:32:00,
2013-03-13 01:42:00,35.0,28.0,-100.00,SSE,163,4.0,19.0,71,0.00,,,-99.99,,2013-03-13 05:42:00,
2013-03-13 01:52:00,35.0,28.0,-100.00,SE,146,4.0,19.0,71,0.00,,,-99.99,,2013-03-13 05:52:00,
2013-03-13 02:02:00,35.0,28.0,-100.00,SE,134,5.0,19.0,72,0.00,,,-99.99,,2013-03-13 06:02:00,
2013-03-13 02:13:00,33.0,25.0,-100.00,SE,139,3.0,19.0,71,0.00,,,-99.99,,2013-03-13 06:13:00,
2013-03-13 02:23:00,35.0,28.0,-100.00,SE,135,4.0,4.0,72,0.00,,,-99.99,,2013-03-13 06:23:00,
2013-03-13 02:32:00,35.0,28.0,-100.00,SSE,155,4.0,4.0,73,0.00,,,-99.99,,2013-03-13 06:32:00,
2013-03-13 02:42:00,33.0,27.0,-100.00,SE,135,4.0,4.0,73,0.00,,,-99.99,,2013-03-13 06:42:00,
2013-03-13 02:52:00,32.0,25.0,-100.00,SE,138,4.0,6.0,73,0.00,,,-99.99,,2013-03-13 06:52:00,
2013-03-13 03:03:00,33.0,27.0,-100.00,SE,128,3.0,6.0,73,0.00,,,-99.99,,2013-03-13 07:03:00,
2013-03-13 03:12:00,33.0,27.0,-100.00,ESE,117,3.0,6.0,73,0.00,,,-99.99,,2013-03-13 07:12:00,
2013-03-13 03:22:00,32.0,25.0,-100.00,SSE,153,3.0,6.0,73,0.00,,,-99.99,,2013-03-13 07:22:00,
2013-03-13 03:33:00,33.0,27.0,-100.00,SSE,151,2.0,6.0,73,0.00,,,-99.99,,2013-03-13 07:33:00,
2013-03-13 03:42:00,32.0,27.0,-100.00,SE,141,2.0,6.0,75,0.00,,,-99.99,,2013-03-13 07:42:00,
2013-03-13 03:52:00,32.0,27.0,-100.00,SSE,149,3.0,6.0,75,0.00,,,-99.99,,2013-03-13 07:52:00,
2013-03-13 04:03:00,32.0,27.0,-100.00,SE,146,4.0,6.0,75,0.00,,,-99.99,,2013-03-13 08:03:00,
2013-03-13 04:12:00,32.0,27.0,-100.00,SE,135,4.0,6.0,75,0.00,,,-99.99,,2013-03-13 08:12:00,
2013-03-13 04:22:00,32.0,25.0,-100.00,SE,134,3.0,6.0,73,0.00,,,-99.99,,2013-03-13 08:22:00,
2013-03-13 04:32:00,32.0,27.0,-100.00,SE,128,3.0,6.0,75,0.00,,,-99.99,,2013-03-13 08:32:00,
2013-03-13 04:43:00,32.0,27.0,-100.00,SSE,152,3.0,6.0,75,0.00,,,-99.99,,2013-03-13 08:43:00,
2013-03-13 04:53:00,33.0,27.0,-100.00,SSE,149,4.0,6.0,75,0.00,,,-99.99,,2013-03-13 08:53:00,
2013-03-13 05:02:00,32.0,27.0,-100.00,SE,131,4.0,6.0,75,0.00,,,-99.99,,2013-03-13 09:02:00,
2013-03-13 05:12:00,32.0,27.0,-100.00,South,177,5.0,6.0,75,0.00,,,-99.99,,2013-03-13 09:12:00,
2013-03-13 05:22:00,33.0,27.0,-100.00,SE,142,6.0,6.0,75,0.00,,,-99.99,,2013-03-13 09:22:00,
2013-03-13 05:32:00,32.0,27.0,-100.00,SSE,160,7.0,8.0,75,0.00,,,-99.99,,2013-03-13 09:32:00,
2013-03-13 05:42:00,32.0,27.0,-100.00,SE,146,6.0,8.0,76,0.00,,,-99.99,,2013-03-13 09:42:00,
2013-03-13 05:52:00,32.0,27.0,-100.00,SSE,159,6.0,8.0,76,0.00,,,-99.99,,2013-03-13 09:52:00,
2013-03-13 06:02:00,32.0,27.0,-100.00,SE,145,6.0,8.0,77,0.00,,,-99.99,,2013-03-13 10:02:00,
2013-03-13 06:12:00,32.0,27.0,-100.00,SSE,162,6.0,8.0,77,0.00,,,-99.99,,2013-03-13 10:12:00,
2013-03-13 06:22:00,32.0,27.0,-100.00,SSE,168,6.0,8.0,78,0.00,,,-99.99,,2013-03-13 10:22:00,
2013-03-13 06:32:00,31.0,27.0,-100.00,SSE,149,5.0,8.0,78,0.00,,,-99.99,,2013-03-13 10:32:00,
2013-03-13 06:42:00,32.0,27.0,-100.00,SSE,160,4.0,8.0,78,0.00,,,-99.99,,2013-03-13 10:42:00,
2013-03-13 06:52:00,32.0,27.0,-100.00,SSE,166,5.0,8.0,78,0.00,,,-99.99,,2013-03-13 10:52:00,
2013-03-13 07:02:00,32.0,27.0,-100.00,SSE,159,5.0,8.0,78,0.00,,,-99.99,,2013-03-13 11:02:00,
2013-03-13 07:12:00,32.0,27.0,-100.00,SE,144,6.0,8.0,78,0.00,,,-99.99,,2013-03-13 11:12:00,
2013-03-13 07:22:00,33.0,28.0,-100.00,SE,132,4.0,8.0,80,0.00,,,-99.99,,2013-03-13 11:22:00,
2013-03-13 07:32:00,32.0,27.0,-100.00,SE,144,4.0,8.0,78,0.00,,,-99.99,,2013-03-13 11:32:00,
2013-03-13 07:42:00,32.0,27.0,-100.00,SSE,155,4.0,8.0,78,0.00,,,-99.99,,2013-03-13 11:42:00,
2013-03-13 07:52:00,32.0,27.0,-100.00,South,170,5.0,8.0,78,0.00,,,-99.99,,2013-03-13 11:52:00,
2013-03-13 08:02:00,34.0,28.0,-100.00,SSW,193,6.0,8.0,80,2.83,,,-99.99,,2013-03-13 12:02:00,
2013-03-13 08:12:00,32.0,27.0,-100.00,SSE,166,9.0,12.0,78,0.00,,,-99.99,,2013-03-13 12:12:00,
2013-03-13 08:22:00,32.0,27.0,-100.00,SSE,168,7.0,12.0,78,0.00,,,-99.99,,2013-03-13 12:22:00,
2013-03-13 08:32:00,32.0,27.0,-100.00,SSE,156,8.0,14.0,77,0.00,,,-99.99,,2013-03-13 12:32:00,
2013-03-13 08:42:00,33.0,27.0,-100.00,SSE,160,8.0,14.0,77,0.00,,,-99.99,,2013-03-13 12:42:00,
2013-03-13 08:52:00,32.0,27.0,-100.00,SSE,163,7.0,14.0,76,0.00,,,-99.99,,2013-03-13 12:52:00,
2013-03-13 09:02:00,32.0,27.0,-100.00,SSE,159,7.0,14.0,77,1.14,,,-99.99,,2013-03-13 13:02:00,
2013-03-13 09:12:00,32.0,27.0,-100.00,South,184,7.0,14.0,78,4.53,,,-99.99,,2013-03-13 13:12:00,
2013-03-13 09:22:00,32.0,27.0,-100.00,SSW,193,12.0,14.0,80,2.83,,,-99.99,,2013-03-13 13:22:00,
2013-03-13 09:33:00,32.0,27.0,-100.00,SSW,200,10.0,14.0,78,0.00,,,-99.99,,2013-03-13 13:33:00,
2013-03-13 09:43:00,32.0,27.0,-100.00,South,186,16.0,24.0,75,0.00,,,-99.99,,2013-03-13 13:43:00,
2013-03-13 09:52:00,32.0,27.0,-100.00,SW,214,16.0,24.0,75,1.14,,,-99.99,,2013-03-13 13:52:00,
2013-03-13 10:02:00,32.0,25.0,-100.00,South,184,17.0,24.0,72,0.00,,,-99.99,,2013-03-13 14:02:00,
2013-03-13 10:12:00,32.0,25.0,-100.00,South,184,12.0,24.0,72,0.00,,,-99.99,,2013-03-13 14:12:00,
2013-03-13 10:22:00,32.0,25.0,-100.00,SSW,211,12.0,24.0,72,2.83,,,-99.99,,2013-03-13 14:22:00,
2013-03-13 10:33:00,34.0,27.0,-100.00,South,180,12.0,24.0,72,4.53,,,-99.99,,2013-03-13 14:33:00,
2013-03-13 10:42:00,33.0,27.0,-100.00,SSW,201,12.0,24.0,76,17.01,,,-99.99,,2013-03-13 14:42:00,
2013-03-13 10:52:00,32.0,28.0,-100.00,SSW,208,9.0,24.0,82,1.14,,,-99.99,,2013-03-13 14:52:00,
2013-03-13 11:03:00,32.0,28.0,-100.00,SSW,199,9.0,24.0,84,0.00,,,-99.99,,2013-03-13 15:03:00,
2013-03-13 11:12:00,32.0,28.0,-100.00,SW,217,9.0,24.0,84,0.00,,,-99.99,,2013-03-13 15:12:00,
2013-03-13 11:22:00,31.0,28.0,-100.00,WSW,248,6.0,24.0,86,0.00,,,-99.99,,2013-03-13 15:22:00,
2013-03-13 11:32:00,31.0,28.0,-100.00,SSW,197,6.0,24.0,88,1.14,,,-99.99,,2013-03-13 15:32:00,
2013-03-13 11:43:00,31.0,28.0,-100.00,SSW,204,11.0,24.0,89,6.22,,,-99.99,,2013-03-13 15:43:00,
2013-03-13 11:52:00,31.0,28.0,-100.00,SSW,208,8.0,24.0,90,-99.99,,,-99.99,,2013-03-13 15:52:00,
2013-03-13 12:03:00,30.0,28.0,-100.00,SSW,196,11.0,24.0,90,28.35,,,-99.99,,2013-03-13 16:03:00,
2013-03-13 12:12:00,31.0,28.0,-100.00,SSW,199,11.0,24.0,89,0.00,,,-99.99,,2013-03-13 16:12:00,
2013-03-13 12:22:00,30.0,28.0,-100.00,South,182,13.0,24.0,89,29.49,,,-99.99,,2013-03-13 16:22:00,
2013-03-13 12:32:00,31.0,28.0,-100.00,SSW,194,10.0,24.0,89,10.79,,,-99.99,,2013-03-13 16:32:00,
2013-03-13 12:42:00,31.0,30.0,-100.00,SSW,203,10.0,24.0,91,-99.99,,,-99.99,,2013-03-13 16:42:00,
2013-03-13 12:52:00,31.0,28.0,-100.00,South,184,6.0,24.0,90,1.14,,,-99.99,,2013-03-13 16:52:00,
2013-03-13 13:03:00,31.0,30.0,-100.00,SSW,192,6.0,24.0,90,1.14,,,-99.99,,2013-03-13 17:03:00,
2013-03-13 13:12:00,31.0,30.0,-100.00,SW,220,6.0,24.0,91,4.53,,,-99.99,,2013-03-13 17:12:00,
2013-03-13 13:23:00,30.0,28.0,-100.00,SSW,194,7.0,24.0,91,1.14,,,-99.99,,2013-03-13 17:23:00,
2013-03-13 13:33:00,29.0,28.0,-100.00,South,180,12.0,24.0,90,0.00,,,-99.99,,2013-03-13 17:33:00,
2013-03-13 13:42:00,31.0,28.0,-100.00,SSW,201,13.0,24.0,90,2.83,,,-99.99,,2013-03-13 17:42:00,
2013-03-13 13:53:00,30.0,28.0,-100.00,SSW,192,10.0,24.0,89,0.00,,,-99.99,,2013-03-13 17:53:00,
2013-03-13 14:02:00,29.0,25.0,-100.00,SSW,200,11.0,24.0,85,0.00,,,-99.99,,2013-03-13 18:02:00,
2013-03-13 14:13:00,28.0,25.0,-100.00,SSW,192,11.0,24.0,82,0.00,,,-99.99,,2013-03-13 18:13:00,
2013-03-13 14:22:00,29.0,23.0,-100.00,SSW,197,11.0,24.0,78,0.00,,,-99.99,,2013-03-13 18:22:00,
2013-03-13 14:33:00,28.0,23.0,-100.00,SW,220,11.0,24.0,76,0.00,,,-99.99,,2013-03-13 18:33:00,
2013-03-13 14:42:00,29.0,23.0,-100.00,SSW,211,14.0,24.0,73,0.00,,,-99.99,,2013-03-13 18:42:00,
2013-03-13 14:52:00,29.0,21.0,-100.00,SSW,210,15.0,24.0,68,0.00,,,-99.99,,2013-03-13 18:52:00,
2013-03-13 15:03:00,29.0,19.0,-100.00,SSW,207,16.0,24.0,64,0.00,,,-99.99,,2013-03-13 19:03:00,
2013-03-13 15:12:00,29.0,19.0,-100.00,SSE,155,11.0,24.0,64,0.00,,,-99.99,,2013-03-13 19:12:00,
2013-03-13 15:22:00,29.0,19.0,-100.00,SSW,207,11.0,24.0,67,1.14,,,-99.99,,2013-03-13 19:22:00,
2013-03-13 15:32:00,28.0,19.0,-100.00,SSW,203,15.0,24.0,66,2.83,,,-99.99,,2013-03-13 19:32:00,
2013-03-13 15:43:00,31.0,21.0,-100.00,SSW,201,15.0,24.0,62,0.00,,,-99.99,,2013-03-13 19:43:00,
2013-03-13 15:52:00,29.0,18.0,-100.00,South,190,15.0,24.0,59,0.00,,,-99.99,,2013-03-13 19:52:00,
2013-03-13 16:02:00,29.0,18.0,-100.00,South,189,16.0,24.0,60,0.00,,,-99.99,,2013-03-13 20:02:00,
2013-03-13 16:12:00,29.0,19.0,-100.00,South,190,15.0,24.0,64,0.00,,,-99.99,,2013-03-13 20:12:00,
2013-03-13 16:22:00,29.0,21.0,-100.00,SW,217,14.0,24.0,71,1.14,,,-99.99,,2013-03-13 20:22:00,
2013-03-13 16:32:00,28.0,21.0,-100.00,SSW,204,17.0,24.0,75,0.00,,,-99.99,,2013-03-13 20:32:00,
2013-03-13 16:42:00,28.0,23.0,-100.00,SW,223,14.0,24.0,76,0.00,,,-99.99,,2013-03-13 20:42:00,
2013-03-13 16:52:00,27.0,23.0,-100.00,WSW,238,11.0,24.0,80,20.39,,,-99.99,,2013-03-13 20:52:00,
2013-03-13 17:02:00,27.0,23.0,-100.00,SSW,199,9.0,24.0,82,6.22,,,-99.99,,2013-03-13 21:02:00,
2013-03-13 17:12:00,27.0,23.0,-100.00,SW,220,6.0,24.0,84,0.00,,,-99.99,,2013-03-13 21:12:00,
2013-03-13 17:22:00,27.0,25.0,-100.00,South,179,6.0,24.0,85,1.14,,,-99.99,,2013-03-13 21:22:00,
2013-03-13 17:33:00,26.0,25.0,-100.00,WSW,242,9.0,24.0,88,4.53,,,-99.99,,2013-03-13 21:33:00,
2013-03-13 17:42:00,26.0,25.0,-100.00,SSW,193,9.0,24.0,89,0.00,,,-99.99,,2013-03-13 21:42:00,
2013-03-13 17:52:00,26.0,25.0,-100.00,SSW,196,14.0,24.0,88,2.83,,,-99.99,,2013-03-13 21:52:00,
2013-03-13 18:02:00,26.0,23.0,-100.00,South,186,11.0,24.0,86,0.00,,,-99.99,,2013-03-13 22:02:00,
2013-03-13 18:12:00,26.0,23.0,-100.00,South,179,9.0,24.0,84,0.00,,,-99.99,,2013-03-13 22:12:00,
2013-03-13 18:22:00,27.0,23.0,-100.00,WSW,247,9.0,24.0,82,0.00,,,-99.99,,2013-03-13 22:22:00,
2013-03-13 18:32:00,27.0,23.0,-100.00,South,172,10.0,24.0,82,4.53,,,-99.99,,2013-03-13 22:32:00,
2013-03-13 18:42:00,27.0,23.0,-100.00,SSW,210,10.0,24.0,82,0.00,,,-99.99,,2013-03-13 22:42:00,
2013-03-13 18:52:00,28.0,23.0,-100.00,WSW,251,9.0,24.0,81,1.14,,,-99.99,,2013-03-13 22:52:00,
2013-03-13 19:02:00,27.0,23.0,-100.00,SSW,200,9.0,24.0,82,0.00,,,-99.99,,2013-03-13 23:02:00,
2013-03-13 19:12:00,28.0,25.0,-100.00,SW,231,8.0,24.0,84,0.00,,,-99.99,,2013-03-13 23:12:00,
2013-03-13 19:22:00,28.0,25.0,-100.00,SSW,206,7.0,24.0,82,0.00,,,-99.99,,2013-03-13 23:22:00,
2013-03-13 19:32:00,28.0,23.0,-100.00,WSW,240,9.0,24.0,81,0.00,,,-99.99,,2013-03-13 23:32:00,
2013-03-13 19:42:00,28.0,23.0,-100.00,SW,231,10.0,24.0,80,0.00,,,-99.99,,2013-03-13 23:42:00,
2013-03-13 19:52:00,27.0,25.0,-100.00,South,187,11.0,24.0,84,4.53,,,-99.99,,2013-03-13 23:52:00,
2013-03-13 20:02:00,27.0,25.0,-100.00,SW,234,11.0,24.0,85,0.00,,,-99.99,,2013-03-14 00:02:00,
2013-03-13 20:13:00,28.0,25.0,-100.00,WSW,254,12.0,24.0,84,0.00,,,-99.99,,2013-03-14 00:13:00,
2013-03-13 20:22:00,28.0,25.0,-100.00,South,189,7.0,24.0,84,0.00,,,-99.99,,2013-03-14 00:22:00,
2013-03-13 20:32:00,28.0,25.0,-100.00,SW,217,6.0,24.0,82,0.00,,,-99.99,,2013-03-14 00:32:00,
2013-03-13 20:42:00,28.0,25.0,-100.00,West,268,6.0,24.0,81,0.00,,,-99.99,,2013-03-14 00:42:00,
2013-03-13 20:52:00,29.0,23.0,-100.00,SW,232,6.0,24.0,78,0.00,,,-99.99,,2013-03-14 00:52:00,
2013-03-13 21:02:00,29.0,25.0,-100.00,SSW,197,7.0,24.0,77,0.00,,,-99.99,,2013-03-14 01:02:00,
2013-03-13 21:12:00,29.0,23.0,-100.00,WSW,238,6.0,24.0,77,0.00,,,-99.99,,2013-03-14 01:12:00,
2013-03-13 21:22:00,29.0,23.0,-100.00,SSW,199,7.0,24.0,75,0.00,,,-99.99,,2013-03-14 01:22:00,
2013-03-13 21:32:00,29.0,23.0,-100.00,SSW,208,7.0,24.0,73,0.00,,,-99.99,,2013-03-14 01:32:00,
2013-03-13 21:42:00,30.0,23.0,-100.00,South,183,9.0,24.0,72,0.00,,,-99.99,,2013-03-14 01:42:00,
2013-03-13 21:52:00,29.0,23.0,-100.00,SSW,199,10.0,24.0,73,0.00,,,-99.99,,2013-03-14 01:52:00,
2013-03-13 22:02:00,29.0,23.0,-100.00,SSW,199,10.0,24.0,73,0.00,,,-99.99,,2013-03-14 02:02:00,
2013-03-13 22:12:00,30.0,23.0,-100.00,SW,228,11.0,24.0,71,0.00,,,-99.99,,2013-03-14 02:12:00,
2013-03-13 22:22:00,29.0,21.0,-100.00,SW,225,11.0,24.0,69,0.00,,,-99.99,,2013-03-14 02:22:00,
2013-03-13 22:32:00,30.0,23.0,-100.00,SSW,196,12.0,24.0,69,0.00,,,-99.99,,2013-03-14 02:32:00,
2013-03-13 22:42:00,30.0,23.0,-100.00,SSW,196,12.0,24.0,69,0.00,,,-99.99,,2013-03-14 02:42:00,
2013-03-13 22:51:00,30.0,23.0,-100.00,SSW,196,12.0,24.0,69,0.00,,,-99.99,,2013-03-14 02:51:00,
2013-03-13 23:02:00,31.0,23.0,-100.00,SSW,199,10.0,24.0,69,0.00,,,-99.99,,2013-03-14 03:02:00,
2013-03-13 23:12:00,31.0,23.0,-100.00,SW,228,10.0,24.0,68,0.00,,,-99.99,,2013-03-14 03:12:00,
2013-03-13 23:23:00,31.0,23.0,-100.00,WSW,251,8.0,24.0,68,0.00,,,-99.99,,2013-03-14 03:23:00,
2013-03-13 23:32:00,31.0,23.0,-100.00,South,190,9.0,24.0,67,0.00,,,-99.99,,2013-03-14 03:32:00,
2013-03-13 23:42:00,31.0,23.0,-100.00,South,190,9.0,24.0,67,0.00,,,-99.99,,2013-03-14 03:42:00,
2013-03-13 23:52:00,31.0,18.0,-100.00,West,271,7.0,24.0,58,0.00,,,-99.99,,2013-03-14 03:52:00,